{"data":{"norad_id":63757,"intl_designator":"2025-089G","name":"STARLINK-11676 [DTC]","alt_names":[],"object_type":"PAYLOAD","status":"ACTIVE","operator":null,"country":"US","launch_date":"2025-04-29","launch_site_code":"AFETR","launch_vehicle":null,"mission":null,"orbit_class":"UNKNOWN","rcs_meters":null,"size_class":null,"mass_kg":null,"dimensions":null,"purposes":["comms"],"wikipedia_slug":null,"has_3d_model":false,"image_url":null,"decayed_at":null,"tle_current":{"epoch":"2026-09-20T18:48:58.647168Z","epoch_age_seconds":125266,"freshness":"FRESH","line1":"1 63757U 25089G   26263.78401212  .00174198  00000+0  13309-2 0  9993","line2":"2 63757  43.0016 195.8453 0002431 288.6011  71.4593 15.70873115 80718","mean_motion":15.70873115,"eccentricity":0.0002431,"inclination_deg":43.0016,"raan_deg":195.8453,"arg_perigee_deg":288.6011,"mean_anomaly_deg":71.4593,"bstar":0.0013309,"rev_number":8071,"period_min":91.668766003421,"perigee_km":354.76324831827,"apogee_km":358.03758040914,"semimajor_km":6734.5374143637,"source":"CELESTRAK","updated_at":"2026-09-21T09:00:35.093819Z"}}}